User: anonymous   Login
Location: Ertinghausen
(51.6624°N, 9.7874°E)
Time: 16:25:50
(UTC+00:00)
Language:

Cosmos 2082 Rocket - Orbit

View from above orbital plane
View from above orbital plane
View from above satellite
View from above satellite

Ground track
Ground track

The orbit data is extracted from the following two-line orbital elements,

1 20625U 90046B   24195.89050411 -.00000045  00000-0  12862-5 0  9997
2 20625  71.0002 125.8535 0012836 150.4183 209.7668 14.14848798762982
Epoch (UTC): 13 July 2024 21:22:19
Eccentricity: 0.0012836
inclination: 71.0002°
perigee height: 833 km
apogee height: 852 km
right ascension of ascending node: 125.8535°
argument of perigee: 150.4183°
revolutions per day: 14.14848798
mean anomaly at epoch: 209.7668°
orbit number at epoch: 76298

The dashed part of the orbit path shows where the satellite is in the earth's shadow,  

DLR